Terminal Aerodrome Forecast
Issued by NWS King Salmon, AK

Home | Current Version | Previous Version | Text Only | Print | Product List | Glossary On
Versions: 1 2 3 4 5 6 7 8 9 10 11 12 13 14 15 16 17 18 19 20 21 22 23 24 25 26 27 28 29 30 31 32 33 34 35 36 37 38 39 40 41 42 43 44 45 46 47 48 49 50
000
FTAK31 PANC 290212 AAA
TAFAKN
TAF AMD
PAKN 290212Z 2902/2924 VRB03KT P6SM -SHRA VCTS SCT035CB OVC060
     FM290700 19005KT P6SM VCFG SCT008 BKN015
     FM291200 19005KT 3SM BR BKN008 OVC012
     FM292000 20007KT P6SM SCT012 BKN025=

USA.gov is the U.S. government's official web portal to all federal, state and local government web resources and services.